CAPE
0 0 0 0 0 35 6 61 95 96 59 0 19 1175 1009 1371 1682 1638 1138 602 149 0 0 0 0 0 0 0 0 0 0 0 0 0 2 2 3 1 0 0 0 0 0
4 93 151 138 264 327 291 239 296 523 208 71 7 192 1124 1186 1521 1477 1119 711 360 8 0 0 0 0 0 0 0 0 0 0 0 0 0 0 2 0 0 0 0 0 0
159 290 407 553 731 806 889 877 759 826 653 180 201 555 857 1151 1357 1327 1090 958 444 0 0 0 0 0 0 0 0 0 0 0 0 0 0 0 0 1 0 0 0 0 0
975 952 985 1007 1101 1198 1227 1201 1151 1091 999 738 223 289 611 1045 1090 1207 1095 970 544 0 0 0 0 0 0 0 0 0 0 0 0 0 0 0 4 0 0 0 0 0 0
90 149 396 865 1297 1419 1617 1540 1510 1388 1218 1038 858 571 297 350 486 749 947 907 465 36 0 0 0 0 0 0 0 0 0 0 0 0 0 0 9 8 0 0 0 0 0
270 135 64 686 1089 1075 1001 1037 1326 1491 1465 1345 1196 1018 791 537 375 305 793 746 155 0 0 0 0 0 0 0 0 0 0 0 0 0 0 2 2 1 0 0 0 0 0
521 528 620 731 758 872 1415 1533 1270 1361 1554 1510 1436 1297 1150 1020 684 546 636 406 47 0 0 0 0 0 0 0 0 0 0 0 0 0 0 0 3 3 0 0 0 0 0
266 303 406 580 572 4 455 1666 1762 1735 1698 1723 1651 1615 1516 1366 1108 631 319 102 0 0 0 0 0 0 0 0 0 0 0 0 0 0 0 0 4 1 0 0 0 0 0
95 155 240 301 498 176 10 124 771 996 783 658 1026 1570 1615 1553 1015 543 202 20 0 0 0 0 0 0 0 0 0 0 0 0 0 0 0 0 0 0 0 0 0 0 0
34 118 201 239 396 524 615 104 25 174 143 71 0 339 1435 1645 912 401 187 13 0 0 0 0 0 0 0 0 0 0 0 0 0 0 0 0 0 0 0 0 0 0 0
35 141 219 261 555 835 847 30 24 36 0 17 64 0 1029 1509 803 294 130 71 16 0 0 0 0 0 0 0 0 0 0 0 0 0 0 0 0 0 0 0 0 0 0
38 148 141 161 393 784 1035 884 132 23 177 188 128 0 725 1224 585 277 75 206 0 0 0 0 0 0 0 0 0 0 0 0 0 0 0 0 0 0 0 0 0 0 0
0 59 110 178 269 410 713 1265 1066 785 578 494 539 673 1049 798 380 223 106 26 1 14 0 0 0 0 0 0 0 0 0 0 0 0 0 0 0 0 0 0 0 0 0
0 0 17 158 211 158 231 356 557 99 54 322 179 97 485 846 484 184 19 3 0 0 0 0 0 0 0 0 0 0 0 0 0 0 0 0 0 1 0 0 0 0 0
0 0 0 18 141 136 0 0 14 0 0 60 85 102 378 505 166 2 26 27 7 2 0 0 0 0 0 0 0 0 0 0 0 0 0 0 0 0 0 0 0 0 0
0 1 0 0 28 100 54 10 2 0 0 0 0 0 0 0 0 0 0 2 2 1 1 0 0 0 0 0 0 0 0 0 0 0 0 0 0 0 0 0 0 1 0
0 0 0 0 1 5 62 126 139 2 0 0 1 0 0 0 0 0 0 0 2 1 0 0 0 0 0 0 0 0 0 0 0 0 0 0 0 0 0 0 0 0 2
0 0 0 1 1 1 1 70 98 75 98 1 0 0 0 0 0 0 0 0 0 0 4 1 1 0 0 0 0 0 0 0 0 0 0 0 0 0 0 0 1 1 1
0 0 0 2 1 1 1 1 54 37 3 0 0 0 0 0 0 1 2 0 0 1 0 1 0 0 1 0 0 0 0 0 0 0 0 0 0 0 0 0 0 0 0
0 0 0 2 0 0 1 2 2 2 2 1 0 0 0 0 0 1 2 3 2 2 1 0 0 0 0 0 0 0 0 0 0 0 0 0 0 0 0 0 0 0 0
0 0 1 2 1 1 2 2 2 2 2 1 2 5 1 0 0 0 0 0 0 0 0 2 0 0 0 1 0 0 0 0 0 0 0 0 0 0 0 0 0 0 0
0 2 3 2 3 2 2 3 2 2 2 1 4 4 2 1 1 2 1 3 3 3 3 1 0 1 0 0 0 0 0 0 0 0 0 0 0 0 0 0 0 0 0
0 0 4 3 3 3 3 2 3 3 3 3 5 5 4 7 8 8 7 7 7 5 6 4 2 0 1 0 0 0 0 0 0 0 0 0 0 0 0 0 0 0 0
0 1 3 3 4 4 5 4 4 4 5 5 5 7 7 8 8 5 4 5 6 6 6 6 6 4 3 2 0 0 0 0 0 0 1 1 0 0 0 0 0 0 0
0 2 3 3 3 4 4 5 5 4 4 4 6 6 5 4 4 4 4 4 4 5 7 7 6 5 4 3 2 1 1 0 0 0 0 0 0 0 0 0 0 0 0
0 1 3 2 2 2 3 5 5 5 4 4 4 4 3 4 3 1 0 0 0 1 0 2 2 4 3 3 3 2 0 0 0 0 0 0 0 0 0 0 0 0 0
CIN
0 0 0 0 0 -240 -79 -288 -317 -317 -191 0 -41 -48 -55 -41 -40 -42 -48 -72 -127 0 0 0 0 0 0 0 0 0 0 0 0 0 0 0 -3 -4 0 0 0 0 0
-24 -193 -165 -162 -167 -157 -147 -165 -146 -130 -192 -178 -48 -132 -57 -49 -43 -40 -43 -58 -82 -52 0 0 0 0 0 0 0 0 0 0 0 0 0 0 -2 -1 0 0 0 0 0
-190 -151 -151 -156 -140 -125 -107 -118 -122 -112 -124 -181 -169 -98 -73 -60 -47 -47 -47 -40 -66 0 0 0 0 0 0 0 0 0 0 0 0 0 0 0 -2 -33 0 0 0 0 0
-160 -158 -153 -147 -137 -139 -134 -127 -110 -108 -107 -120 -156 -125 -99 -63 -59 -44 -47 -46 -67 0 0 0 0 0 0 0 0 0 0 0 0 0 0 0 -13 -33 0 0 0 0 0
-282 -317 -248 -171 -125 -140 -137 -141 -134 -117 -106 -106 -113 -122 -137 -121 -97 -79 -62 -53 -83 -38 0 0 0 0 0 0 0 0 0 0 0 0 0 0 -15 -21 0 0 0 0 0
-231 -247 -264 -158 -126 -143 -165 -159 -150 -132 -116 -115 -109 -105 -105 -122 -120 -119 -77 -72 -137 0 0 0 0 0 0 0 0 0 0 0 0 0 0 -2 -16 -31 0 0 0 0 0
-202 -166 -152 -130 -126 -137 -151 -170 -182 -146 -117 -120 -113 -115 -103 -78 -102 -115 -101 -133 -196 0 0 0 0 0 0 0 0 0 0 0 0 0 0 0 -20 -36 0 0 0 0 0
-254 -222 -201 -212 -202 -197 -216 -158 -141 -117 -107 -94 -88 -84 -80 -62 -80 -118 -184 -201 0 0 0 0 0 0 0 0 0 0 0 0 0 0 0 -6 -33 -51 0 0 0 0 0
-367 -321 -287 -294 -204 -294 -412 -401 -219 -210 -244 -226 -68 -38 -49 -41 -87 -148 -234 -251 0 0 0 0 0 0 0 0 0 0 0 0 0 0 0 -14 -3 0 0 0 0 0 0
-475 -378 -331 -289 -231 -217 -204 -418 -411 -285 -261 -328 0 -108 -22 -33 -90 -202 -267 -278 0 0 0 0 0 0 0 0 0 0 0 0 0 0 0 0 0 0 0 0 0 0 0
-621 -408 -332 -293 -240 -192 -141 -156 -302 -292 -58 -172 -82 0 -19 -34 -106 -257 -296 -241 -161 0 0 0 0 0 0 0 0 0 0 0 0 0 0 0 0 0 0 0 0 0 0
-621 -393 -376 -328 -242 -146 -86 -132 -274 -167 -204 -81 -41 0 -22 -63 -166 -311 -361 -248 0 0 0 0 0 0 0 0 0 0 0 0 0 0 0 0 0 0 0 0 0 0 0
-38 -450 -408 -305 -259 -229 -163 -72 -93 -177 -161 -28 -61 -100 -78 -83 -225 -356 -418 -407 -48 -350 0 0 0 0 0 0 0 0 0 0 0 0 0 0 0 0 0 0 0 0 0
0 0 -399 -290 -251 -340 -347 -255 -161 -318 -306 -105 -170 -171 -225 -145 -199 -347 -533 0 0 0 0 0 0 0 0 0 0 0 0 0 0 0 0 0 0 0 0 0 0 0 0
0 0 0 -281 -216 -237 0 0 -217 0 0 -411 -396 -420 -245 -164 -341 -197 -491 -514 -585 -105 0 0 0 0 0 0 0 0 0 0 0 0 0 0 0 0 0 0 0 0 0
0 0 0 0 -218 -166 -262 -255 0 0 0 0 0 0 0 0 0 0 0 0 0 0 0 0 0 0 0 0 0 0 0 0 0 0 0 0 0 0 0 0 0 0 0
0 0 0 0 0 -92 -172 -182 -217 0 0 0 0 0 0 0 0 0 0 0 0 0 0 0 0 0 0 0 0 0 0 0 0 0 0 0 0 0 0 0 0 0 -3
0 0 0 0 0 0 0 -156 -195 -275 -275 -1 0 0 0 0 0 0 0 0 0 0 0 0 0 0 0 0 0 0 0 0 0 0 0 0 0 0 0 0 0 0 -1
0 0 0 0 0 0 0 0 -207 -260 -91 0 0 0 0 0 0 0 0 0 0 0 0 0 0 0 0 0 0 0 0 0 0 0 0 0 0 0 0 0 0 0 0
0 0 0 0 0 0 0 0 0 0 0 0 0 0 0 0 0 0 0 0 0 0 0 0 0 0 0 0 0 0 0 0 0 0 0 0 0 0 0 0 0 0 0
0 0 0 0 0 0 0 0 0 0 0 0 0 0 0 0 0 0 0 0 0 0 0 0 0 0 0 0 0 0 0 0 0 0 0 0 0 0 0 0 0 0 0
0 0 0 0 0 0 0 0 0 0 0 0 0 0 0 0 0 0 0 0 0 0 0 0 0 0 0 0 0 0 0 0 0 0 0 0 0 0 0 0 0 0 0
0 0 0 0 0 0 0 0 0 0 0 0 0 0 0 0 0 0 0 0 0 0 0 0 0 0 0 0 0 0 0 0 0 0 0 0 0 0 0 0 0 0 0
0 0 0 0 0 0 0 0 0 0 0 0 0 0 0 0 0 0 0 0 0 0 0 0 0 0 0 0 0 0 0 0 0 0 -9 -5 0 0 0 0 0 0 0
0 0 0 0 0 0 0 0 0 0 0 0 0 0 0 0 0 0 0 0 0 0 0 0 0 0 0 0 0 0 0 0 0 -2 0 0 0 0 0 0 0 0 0
0 0 0 0 0 0 0 0 0 0 0 0 0 0 0 0 0 0 0 0 0 0 0 0 0 0 0 0 0 0 0 0 0 0 0 0 0 0 0 0 0 0 0
Wind_Speed
4 3 4 5 6 22 27 25 15 12 12 9 7 4 3 3 4 5 7 10 12 15 17 20 21 22 22 22 23 22 20 21 24 22 19 19 16 15 13 8 7 8 9
6 4 5 4 3 5 12 20 17 7 2 5 8 8 4 2 2 3 5 7 9 12 15 18 20 21 21 22 23 22 20 20 21 23 20 19 16 17 17 14 8 8 8
8 6 9 11 8 7 6 8 7 5 7 6 3 6 8 4 1 2 3 4 6 9 11 15 17 20 20 21 23 24 23 23 22 22 21 19 17 16 17 15 9 7 7
17 6 7 8 11 10 11 8 8 9 7 4 8 8 7 7 2 3 3 4 6 7 10 14 17 17 18 20 21 23 22 23 23 24 23 21 19 18 17 16 12 11 8
24 23 19 24 23 25 14 10 12 12 12 8 6 12 13 9 4 2 3 4 6 8 11 13 15 16 18 19 20 22 21 22 22 22 23 21 20 18 17 16 14 12 11
24 24 22 21 26 27 27 18 15 12 9 8 6 6 11 8 9 4 1 3 5 7 9 12 14 17 19 21 22 22 21 20 21 22 22 22 21 20 20 17 14 16 16
22 23 23 20 28 28 27 22 13 13 15 12 8 5 13 7 7 4 4 3 5 7 8 10 13 15 17 20 23 25 26 23 20 21 22 22 22 20 20 19 21 22 20
27 26 26 27 30 29 29 21 18 20 21 25 26 9 10 7 8 4 2 3 5 6 8 9 11 13 15 18 21 23 25 26 24 23 23 22 22 22 21 22 23 21 18
25 28 30 30 31 31 27 22 19 20 23 29 36 37 5 19 1 3 4 4 5 6 8 9 11 13 14 17 19 20 23 25 24 24 24 24 24 25 25 25 22 23 20
29 30 29 27 28 29 27 29 21 26 29 38 41 38 34 30 6 3 4 6 6 7 9 10 11 12 14 16 18 19 21 22 23 24 25 25 24 25 23 23 22 25 21
29 30 29 30 31 29 24 22 16 21 32 41 55 39 34 30 10 3 6 5 7 10 9 10 11 12 14 15 16 18 19 20 22 23 23 22 22 21 22 21 20 21 17
31 31 30 30 29 28 22 12 19 16 18 20 19 59 35 26 5 7 10 11 12 11 11 10 10 12 13 14 14 16 18 19 20 21 21 21 21 21 21 20 20 19 18
33 32 31 30 28 26 23 18 18 19 22 16 13 21 20 22 15 8 11 10 9 7 8 9 9 11 12 12 12 14 15 16 17 19 19 20 20 20 21 22 22 22 22
34 34 32 30 29 27 25 23 24 22 23 24 23 27 23 20 10 7 6 6 5 6 6 7 7 8 10 9 9 10 11 12 14 16 18 18 19 20 20 20 21 21 21
34 34 33 31 29 26 24 22 21 21 20 19 18 14 14 7 7 12 7 4 3 4 5 5 4 4 6 6 6 6 8 9 11 13 15 16 17 18 18 19 19 20 20
35 33 32 31 29 26 23 21 20 18 17 17 18 16 15 14 15 14 11 7 4 3 4 2 1 1 2 3 4 4 6 7 8 11 13 14 14 15 17 18 18 19 20
32 32 32 29 28 28 25 21 21 20 18 19 18 19 20 21 18 16 12 7 4 2 6 3 3 3 2 2 2 3 6 4 7 8 10 11 12 12 14 15 17 18 19
31 31 30 29 28 28 26 24 19 19 19 19 18 19 20 19 16 14 11 11 9 11 14 10 8 6 5 4 4 4 3 4 3 4 5 7 9 10 11 12 14 16 17
30 30 30 28 27 27 25 23 18 16 17 19 20 18 19 18 17 15 15 13 11 12 15 14 13 11 9 7 4 3 4 2 1 1 4 7 6 7 8 9 11 13 14
29 29 29 28 27 26 25 23 21 19 19 19 19 19 17 16 15 15 15 14 15 16 16 17 14 10 6 1 5 5 4 3 3 3 7 3 4 4 4 7 7 8 10
29 29 28 27 27 27 26 26 24 23 22 21 19 20 19 16 15 15 16 17 18 18 18 18 15 11 7 2 2 4 4 4 4 3 4 4 5 4 7 4 4 4 7
29 29 28 27 27 27 26 26 24 23 21 21 21 20 19 17 17 18 18 19 19 19 19 18 16 12 8 5 4 3 2 3 3 4 6 4 5 5 3 1 0 5 3
28 28 28 27 27 26 25 24 22 21 20 20 19 19 18 18 17 17 18 19 19 19 19 18 16 15 14 8 4 3 1 2 4 3 8 5 10 11 13 13 9 3 1
28 27 27 26 25 25 24 23 21 19 18 17 16 16 16 15 15 16 17 18 17 18 18 18 17 16 16 15 15 12 5 3 4 3 6 14 5 13 12 13 8 13 14
26 26 26 25 25 24 23 21 18 17 16 15 15 15 15 14 15 15 16 17 18 19 20 20 20 19 19 19 18 18 17 8 7 7 5 28 9 9 13 12 11 7 7
23 23 22 22 21 21 21 20 17 15 14 13 12 13 14 14 15 15 17 18 19 19 20 21 21 22 21 22 22 24 22 6 1 6 10 9 6 14 11 6 7 6 7
Wind_Direction
228 217 191 183 181 205 215 214 196 193 194 192 182 160 145 78 58 50 40 33 29 24 22 22 24 26 27 30 28 30 35 37 37 45 57 68 81 91 116 149 157 179 205
266 217 205 250 247 203 196 205 204 201 218 197 193 190 173 126 66 56 38 36 36 30 26 25 25 27 29 31 31 33 39 42 43 48 60 68 87 92 88 103 140 199 207
199 229 203 201 208 228 239 215 221 264 309 320 189 183 187 180 105 70 53 57 48 38 36 32 31 30 31 33 36 38 47 49 51 54 62 74 91 99 95 108 157 184 188
287 274 268 275 216 279 286 264 256 283 276 248 201 196 187 187 146 61 71 67 53 52 45 37 32 36 39 40 42 44 51 52 54 57 66 77 87 97 109 117 141 148 160
273 285 302 293 295 291 298 289 290 291 296 288 219 204 204 197 188 111 68 67 56 55 46 40 40 41 47 46 49 49 53 56 58 63 69 78 90 101 116 124 133 144 150
285 289 298 302 295 297 292 300 299 293 285 286 267 210 203 200 202 204 74 94 62 57 51 49 47 46 49 49 50 53 56 61 63 68 73 78 88 102 110 121 131 135 137
293 299 305 308 295 298 298 300 297 295 299 298 292 223 206 209 208 220 180 98 73 59 61 63 53 60 61 53 52 51 50 61 75 74 78 82 88 101 112 113 119 122 127
284 292 292 292 293 299 303 307 302 301 296 292 286 210 206 218 212 195 135 82 78 70 74 81 71 77 71 65 57 50 52 57 70 76 81 87 88 94 104 115 115 128 138
298 296 293 297 294 295 308 315 303 295 295 290 277 256 237 312 220 20 42 56 75 79 68 86 94 85 88 79 70 67 56 57 68 74 80 85 86 86 94 102 116 119 134
294 292 299 306 303 304 308 311 294 287 293 280 275 268 265 282 339 10 53 33 73 91 84 109 114 98 96 91 76 74 64 66 69 73 75 78 85 86 91 100 109 110 125
305 299 304 306 308 311 314 323 331 317 303 281 277 256 267 269 323 127 115 56 120 123 105 116 117 114 110 100 86 76 76 76 68 70 75 80 85 90 92 101 101 112 130
313 310 311 312 314 317 322 315 317 318 334 313 235 238 239 277 350 139 145 136 124 123 124 118 117 123 120 111 94 80 78 81 78 68 69 76 82 85 90 95 108 113 117
308 305 307 313 316 322 331 331 325 316 318 340 357 306 310 296 307 126 137 138 118 105 98 119 118 122 128 117 107 83 78 82 84 75 64 66 81 87 88 83 86 95 94
304 301 303 305 310 316 323 323 313 315 321 312 312 282 293 313 6 51 103 97 89 53 69 92 105 121 130 120 101 93 75 82 81 76 68 62 71 85 87 87 86 97 103
303 300 299 302 306 308 316 320 319 318 319 325 335 340 336 10 23 343 4 54 52 35 46 50 60 96 126 125 116 92 97 83 83 77 77 69 65 77 87 91 88 93 105
299 299 299 299 301 304 305 309 315 323 328 330 326 327 330 328 326 330 343 349 14 57 358 9 46 110 156 147 126 101 109 106 93 86 88 79 71 67 76 89 92 95 103
299 298 299 299 297 295 298 300 298 305 315 318 321 319 317 310 317 321 337 354 8 358 322 292 274 246 263 252 161 133 132 112 109 100 97 92 74 64 68 77 83 92 100
298 298 297 296 295 292 291 293 298 294 298 308 316 317 320 322 324 327 343 342 337 325 319 308 297 286 276 266 199 170 145 130 121 79 84 92 80 77 71 60 79 83 95
301 295 294 294 293 291 291 290 293 295 296 299 304 311 313 320 330 335 339 338 342 336 333 329 319 308 298 269 214 217 188 176 190 106 121 121 95 85 73 56 66 82 85
302 297 292 289 288 288 287 285 286 288 291 295 298 303 309 318 328 337 344 345 347 340 340 339 338 334 316 242 227 251 207 241 187 172 154 151 128 99 68 75 60 65 80
300 297 293 287 285 283 283 283 283 285 287 290 296 299 300 310 318 323 329 333 337 338 337 338 345 353 359 343 237 227 236 252 250 253 213 171 165 154 132 92 59 34 54
299 293 291 285 282 280 280 281 282 283 284 286 290 294 300 304 308 312 317 320 324 330 334 337 343 360 27 77 120 152 209 246 243 256 233 190 174 182 245 246 13 308 3
302 294 287 284 281 279 278 280 281 282 283 286 290 295 298 300 304 308 310 315 319 321 325 333 340 346 343 3 57 87 190 203 197 234 247 234 169 164 164 163 157 172 216
302 298 291 285 283 279 276 277 280 283 285 288 292 295 298 305 308 310 310 312 319 321 324 329 332 336 334 334 328 330 326 297 168 237 216 264 204 166 163 163 175 170 167
306 299 295 288 282 277 274 275 279 281 284 288 291 296 300 307 311 313 313 315 318 321 322 322 324 322 321 313 314 312 311 324 177 183 222 246 272 180 171 170 170 192 192
313 309 300 293 285 279 272 271 274 278 282 290 297 302 304 308 313 312 312 314 316 319 324 325 324 320 312 299 297 292 295 348 299 177 187 208 276 262 264 220 205 199 195